sat.trackr.live / text

‹ back to catalog

SEMI-1L

NORAD 66294 · 2025-248B

PAYLOAD ACTIVE UNKNOWN

§ Identity

Operator
Country
TURK
Launch date
2025-11-02
Launch site
AFETR
Launch vehicle
Mass (kg)
RCS (m²)

External: N2YO · Heavens-Above · Gunter

§ Orbital elements

Epoch: 2026-05-24T23:53:31.410816Z

Period
94.69 min
Inclination
45.3988°
Eccentricity
0.0004265
Mean motion
15.20751304 rev/d
Perigee alt
500.6 km
Apogee alt
506.5 km
Semi-major
6,881.7 km
B*
1.3962e-4
RAAN
245.8650°
Arg perigee
293.5102°
Mean anomaly
66.5336°
Rev number
3,098

§ Raw data

SEMI-1L1 66294U 25248B   26144.99550244  .00002847  00000+0  13962-3 0  99972 66294  45.3988 245.8650 0004265 293.5102  66.5336 15.20751304 30982

JSON: /api/v1/satellites/66294 · /tle

For live sub-satellite position, see the globe view (requires WebGL).

§ Visibility from observer

Set your observer location to see the next 7 days of passes ≥ 10°. The values pass through the URL so the page stays shareable.

No JS? Fill the form by hand. The geolocation button needs JavaScript.